Terminal Aerodrome Forecast
Issued by NWS

Home | Current Version | Previous Version | Text Only | Print | Product List | Glossary Off
Versions: 1 2 3 4 5 6 7 8 9 10 11 12 13 14 15 16 17 18 19 20 21 22 23 24 25 26

000
FTUS41 KGYX 020049 AAA
TAFRKD
TAF AMD
KRKD 020049Z 0201/0224 15004KT 1/2SM FG OVC002
     FM020400 24007KT 2SM BR SCT004
     FM020600 26007KT P6SM SKC
      AMD LTD TO CLD VIS AND WIND=

USA.gov is the U.S. government's official web portal to all federal, state and local government web resources and services.